Location: Gro�sch�nbrunn
(49.5760°N, 11.8868°E)
Time: 07:54:28
(UTC+00:00)

N. Korean satellite - Pass Details

Date: 03 December 2020
Orbit: 453 x 502 km, 97.2° (Epoch: 16 January)

Event Time Altitude Azimuth Distance (km) Brightness Sun altitude
Rises 17:01:25 0° 215° (SW) 2,467 11.0 -16.6°
Maximum altitude 17:05:56 12° 272° (W) 1,508 10.2 -17.3°
Drops below altitude 10° 17:07:16 10° 294° (WNW) 1,624 10.0 -17.5°
Sets 17:10:32 0° 328° (NNW) 2,520 10.4 -18.0°
